STARLINK-2166, 48558

Orbit data source: Space-Track

STARLINK-2166, 48558 is a payload satellite owned by SpaceX/Seattle (US) in LEO that was launched on Sat, 15 May 2021 UTC via an FALCON 9 launch vehicle from the Air Force Eastern Test Range (AFETR). Payload-class satellites include a variety of spacecraft equipped with specific instruments for various scientific and technological missions. These include communications satellites like Starlink; space stations such as the ISS; scientific satellites like the Hubble; Earth observation satellites from companies like Planet Labs, Umbra, and HawkEye 360; GPS; miniature CubeSats for education and research; and military/defense satellites.

Loading next visibility...
Identifier
48558, 2021-041F
Orbit
LEO
Country
Flag of USUS
Related business
Manufacturer
SpaceX/Seattle
Mission
Operational Commercial Communications
Bus & Motor
STARLINK, Unknown motor
Mass
260 kg wet, ~248 kg dry
Launch date (UTC)
2021-05-15 (5 years ago)
Launch vehicle
FALCON 9
Launch site
Air Force Eastern Test Range (AFETR)
Object type
Payload
Rocket body
Debris
Shape & HBR
Box + 1 Pan, 10.1 m
Radar Cross Section
13.562 m², Large (>1 m²)

Expand to show TLE details & history
Last TLE update: 1 day ago

TLE from 1 day ago
0 STARLINK-2166
1 48558U 21041F   25349.70931253  .00000618  00000-0  60389-4 0  9996
2 48558  53.0548 148.6204 0000805  92.8651 267.2430 15.06392867251689
Epoch: 2025-12-15T17:01Z
TLE epoch observation values (Epoch: 2025-12-15T17:01:24.602Z)
Latitude
-0.00004°
Longitude
168.66388°
Altitude
548.139 km
Speed
7.589 km/s
True Right ascension
09h 54m 28s
True Declination
0° 00' 00"
Sunlit
Object was in daylight at epoch
Visualization orbit readout
Latitude
Unknown
Longitude
Unknown
Altitude
Unknown
Speed
Unknown
Apparent Right ascension
Unknown
Apparent Declination
Unknown
Sunlit
N/A
Visualization observer readout
Local Sidereal Time
17:42:41
Azimuth
Unknown
Elevation
Unknown
Doppler factor
Unknown
Orbital elements
Apogee altitude
548.062 km
Perigee altitude
546.947 km
Semi-major axis
6,925.641 km
Eccentricity
0.00008
Inclination
53.0548°
RAAN
148.6204°
Arg. of periapsis
92.8651°
True anomaly
267.23379°
Mean anomaly
267.243°
Eccentric anomaly
267.23839°
Mean motion
3.76576 °/min
Orbital period
95.6 mins
BSTAR
0.000060389
Loading maneuver chart data...
Computing Atmospheric mass density...
Loading historical data...
Loading historical data...
Loading historical data...
Loading historical data...
Loading historical data...
Loading historical data...
Loading historical data...

Documentation

Showing up to 5 results
|